User: anonymous   Login
Location: Gull Harbor
(47.1000°N, 122.9000°W)
Time: 17:35:06
(UTC-07:00)
Language:

N. Korean satellite - Orbit

View from above orbital plane
View from above orbital plane
View from above satellite
View from above satellite

Ground track
Ground track

The orbit data is extracted from the following two-line orbital elements,

1 39026U 12072A   18141.61124668 +.00001423 +00000-0 +55684-4 0  9993
2 39026 097.2111 152.8810 0040896 058.9477 301.5767 15.26673387301545
Epoch (UTC): 21 May 2018 14:40:11
Eccentricity: 0.0040896
inclination: 97.2111°
perigee height: 458 km
apogee height: 514 km
right ascension of ascending node: 152.8810°
argument of perigee: 58.9477°
revolutions per day: 15.26673387
mean anomaly at epoch: 301.5767°
orbit number at epoch: 30154

The dashed part of the orbit path shows where the satellite is in the earth's shadow,  

DLR